Regional Weather Roundup
Issued by NWS

Home | Current Version | Previous Version | Graphics & Text | Print | Product List | Glossary On
Versions: 1 2 3 4 5 6 7 8 9 10 11 12 13 14 15 16 17 18 19 20 21 22 23 24 25 26 27 28 29 30 31 32 33 34 35 36 37 38 39 40 41 42 43 44 45 46 47 48 49 50
000
ASUS43 KLMK 272002
RWRKY
KENTUCKY REGIONAL WEATHER ROUNDUP
NATIONAL WEATHER SERVICE LOUISVILLE KY
400 PM EDT WED AUG 27 2014

NOTE "FAIR" INDICATES FEW OR NO CLOUDS BELOW 12,000 FEET
WITH NO SIGNIFICANT WEATHER AND/OR OBSTRUCTIONS TO VISIBILITY.

KYZ001>023-026-027-061>063-070>075-272100-
WESTERN AND SOUTH CENTRAL KENTUCKY

CITY           SKY/WX    TMP DP  RH WIND       PRES   REMARKS
PADUCAH        SUNNY     95  70  44 CALM      30.04F HX 101
HENDERSON      SUNNY     93  73  52 NW5       30.04F HX 102
OWENSBORO      MOSUNNY   92  73  53 NE6       30.05F HX 100
HOPKINSVILLE   MOSUNNY   92  71  50 S8        30.05F HAZE    HX  98
BOWLING GREEN  MOSUNNY   88  72  58 SE6       30.06F HX  94
GLASGOW        MOSUNNY   89  70  52 CALM      30.08S HX  94
$$

KYZ024-025-028>034-038-045-046-053-272100-
NORTH CENTRAL KENTUCKY

CITY           SKY/WX    TMP DP  RH WIND       PRES   REMARKS
LOUISVILLE/SDF HVY RAIN  86  67  52 N43G59    30.04F SQUALL  VSB 1
LOUISVILLE/LOU LGT RAIN  82  73  74 W8        30.05F
FORT KNOX      MOSUNNY   90  73  58 W7        30.05F HX  98
$$

KYZ035>037-039>044-047>052-055>060-089>105-272100-
NORTHEAST KENTUCKY

CITY           SKY/WX    TMP DP  RH WIND       PRES   REMARKS
LEXINGTON      SUNNY     90  70  51 CALM      30.07F HX  95
COVINGTON      MOSUNNY   91  70  49 W8        30.06F HX  96
FRANKFORT      MOSUNNY   89  71  55 CALM      30.05F HX  95
$$

KYZ054-064>069-076>088-106>120-272100-
SOUTHEAST KENTUCKY

CITY           SKY/WX    TMP DP  RH WIND       PRES   REMARKS
JACKSON        SUNNY     84  66  54 CALM      30.10F
LONDON         SUNNY     87  67  51 NE5       30.10F HX  90
SOMERSET       MOSUNNY   86  64  48 E3        30.09F
MIDDLESBORO    SUNNY     87  62  42 CALM      30.09F
MONTICELLO     PTCLDY    89  71  55 VRB3      30.10F HX  95
$$



USA.gov is the U.S. government's official web portal to all federal, state and local government web resources and services.